Effective Sunday, March 17, 2024, the National Weather Service National Data Buoy Center will discontinue its Dial-A-Buoy Interactive Voice Response system. For more information, see Service Change Notice 24-06 (PDF).

Station SWXA2 - Seward Harbor, AK Image indicating link to RSS feed of recent meteorological observations for station SWXA2


Conditions at SWXA2 as of
(4:34 am AKST)
1334 GMT on 03/04/2024:
     

Click on the graph icon in the table below to see a time series plot of the last five days of that observation.

5-day plot - Wind Direction Wind Direction (WDIR): NW ( 320 deg true )
5-day plot - Wind Speed Wind Speed (WSPD): 4 kts
5-day plot - Wind Gust Wind Gust (GST): 6 kts
5-day plot - Air Temperature Air Temperature (ATMP): 27.3 °F
5-day plot - Dew Point Dew Point (DEWP): 22.1 °F
5-day plot - Wind Chill Wind Chill (CHILL): 21.9 °F
5-day plot - Wind Speed at 10 Meters Wind Speed at 10 meters (WSPD10M): 4 kts
5-day plot - Wind Speed at 20 Meters Wind Speed at 20 meters (WSPD20M): 4 kts
5-day plot -  Wind Speed, Wind Gust and Atmospheric Pressure Combined plot of Wind Speed, Gust, and Air Pressure
Previous observations
TIME
(AKST)
5-day plot - Wind Direction
WDIR
 
5-day plot - Wind Speed
WSPD
kts
5-day plot - Wind Gust
GST
kts
5-day plot - Wave Height
WVHT
ft
5-day plot - Dominant Wave Period
DPD
sec
5-day plot - Average Wave Period
APD
sec
5-day plot - Mean Wave Direction
MWD
 
5-day plot - Atmospheric Pressure
PRES
in
5-day plot - Pressure Tendency
PTDY
in
5-day plot - Air Temperature
ATMP
°F
5-day plot - Water Temperature
WTMP
°F
5-day plot - Dew Point
DEWP
°F
5-day plot - Salinity
SAL
psu
5-day plot - Visibility
VIS
nmi
5-day plot - Tide (above MLLW)
TIDE
ft
2024-03-04 04:25 am NW 4 5------ 27.1- 22.5---
2024-03-04 04:15 amNNW 3 5------ 27.1- 22.5---
2024-03-04 04:04 amNNW 3 5------ 27.1- 22.3---
2024-03-04 03:44 amWNW 3 6------ 27.0- 21.9---
2024-03-04 03:34 amWNW 3 5------ 27.1- 21.6---
2024-03-04 03:24 am NW 3 5------ 27.1- 21.6---
2024-03-04 03:14 am NW 4 6------ 27.0- 21.6---
2024-03-04 03:04 amWNW 3 5------ 26.8- 22.1---
2024-03-04 02:54 amWNW 2 4------ 27.0- 22.1---
2024-03-04 02:44 amNNW 3 5------ 27.0- 21.7---
2024-03-04 02:34 am NW 4 5------ 26.8- 21.7---
2024-03-04 02:24 amWNW 3 5------ 26.6- 21.9---
2024-03-04 02:14 am NW 3 4------ 26.8- 21.4---
2024-03-04 02:05 am NW 3 5------ 27.0- 21.4---
2024-03-04 01:54 am NW 4 6------ 26.6- 21.0---
2024-03-04 01:44 am NW 5 7------ 26.4- 21.4---
2024-03-04 01:34 am NW 5 7------ 26.2- 21.6---
2024-03-04 01:24 am NW 4 6------ 26.2- 21.4---
2024-03-04 01:14 am NW 5 7------ 26.2- 21.4---
2024-03-04 01:04 am NW 6 8------ 26.1- 21.4---
2024-03-04 12:54 am NW 6 8------ 26.2- 21.4---
2024-03-04 12:44 am NW 5 7------ 26.2- 21.6---
2024-03-04 12:34 am NW 5 7------ 26.2- 21.6---
2024-03-04 12:24 am NW 5 7------ 26.1- 21.2---
2024-03-04 12:15 amNNW 5 7------ 25.9- 21.2---
2024-03-04 12:04 amNNW 6 9------ 25.7- 21.0---
2024-03-03 11:54 pmNNW 5 8------ 25.5- 21.0---
2024-03-03 11:44 pm NW 5 7------ 25.5- 21.0---
2024-03-03 11:34 pm NW 5 8------ 25.5- 21.0---
2024-03-03 11:24 pm NW 5 8------ 25.3- 21.2---
2024-03-03 11:14 pmNNW 5 7------ 25.3- 21.2---
2024-03-03 11:04 pm NW 5 7------ 25.2- 21.2---
2024-03-03 10:54 pm NW 5 7------ 25.2- 21.4---
2024-03-03 10:44 pm NW 5 7------ 25.2- 21.2---
2024-03-03 10:35 pm NW 5 7------ 25.2- 21.2---
2024-03-03 10:24 pm NW 5 7------ 25.2- 21.0---
2024-03-03 10:14 pm NW 5 7------ 25.2- 20.7---
2024-03-03 10:04 pm NW 5 8------ 25.3- 20.7---
2024-03-03 09:54 pm NW 5 8------ 25.2- 20.5---
2024-03-03 09:44 pm NW 6 8------ 25.2- 20.3---
2024-03-03 09:24 pm NW 5 8------ 25.0- 20.1---
2024-03-03 09:14 pm NW 5 6------ 25.0- 20.3---
2024-03-03 09:04 pm NW 5 7------ 25.0- 20.5---
2024-03-03 08:54 pm NW 4 7------ 25.2- 20.7---
2024-03-03 08:44 pm NW 3 5------ 25.2- 20.7---
2024-03-03 08:34 pm NW 4 6------ 25.0- 20.5---
2024-03-03 08:24 pm NW 4 6------ 25.2- 20.7---
2024-03-03 08:14 pm NW 5 9------ 25.2- 20.7---
2024-03-03 08:04 pmNNW 5 8------ 25.2- 20.7---
2024-03-03 07:54 pmNNW 4 6------ 25.2- 20.5---
2024-03-03 07:44 pm NW 5 7------ 25.0- 20.7---
2024-03-03 07:35 pm NW 5 8------ 25.0- 21.0---
2024-03-03 07:25 pm NW 4 7------ 25.3- 21.0---
2024-03-03 07:15 pmNNW 4 6------ 25.5- 21.2---
2024-03-03 07:04 pm NW 4 6------ 25.7- 21.4---
2024-03-03 06:54 pmWNW 4 5------ 25.9- 21.4---
2024-03-03 06:45 pm NW 4 5------ 26.2- 21.4---
2024-03-03 06:34 pmNNW 4 6------ 26.4- 21.6---
2024-03-03 06:24 pm NW 4 5------ 26.4- 22.1---
2024-03-03 06:14 pm NW 4 6------ 26.2- 22.1---
2024-03-03 06:04 pm NW 4 6------ 26.4- 22.1---
2024-03-03 05:54 pm NW 4 5------ 26.4- 22.6---
2024-03-03 05:44 pmNNW 4 5------ 26.2- 22.8---
2024-03-03 05:34 pmNNW 3 5------ 26.2- 22.8---
2024-03-03 05:24 pmNNW 4 5------ 26.2- 22.8---
2024-03-03 05:14 pmNNW 3 5------ 26.4- 22.8---
2024-03-03 05:04 pmNNW 3 5------ 26.4- 22.6---
2024-03-03 04:54 pmNNW 3 5------ 26.4- 22.3---
2024-03-03 04:45 pmNNW 3 4------ 26.8- 22.1---
2024-03-03 04:34 pmNNW 3 4------ 27.0- 22.3---
2024-03-03 04:24 pm NW 3 4------ 27.0- 22.3---
2024-03-03 04:14 pmWNW 3 5------ 26.8- 21.7---
2024-03-03 04:04 pm NW 4 5------ 26.8- 21.4---
2024-03-03 03:54 pm NW 4 7------ 26.6- 20.8---
2024-03-03 03:44 pmNNW 4 6------ 26.6- 20.5---
2024-03-03 03:24 pmNNW 4 7------ 26.2- 19.4---
2024-03-03 03:14 pm N 5 6------ 25.5- 18.1---
2024-03-03 02:54 pmNNE 4 5------ 25.3- 15.6---
2024-03-03 02:44 pm N 3 4------ 25.7- 13.8---
2024-03-03 02:34 pm N 4 5------ 26.2- 12.4---
2024-03-03 02:25 pmNNE 3 5------ 26.4- 10.8---
2024-03-03 02:14 pmNNE 1 3------ 26.2- 10.0---
2024-03-03 02:04 pmNNE 3 5------ 25.7- 9.9---
2024-03-03 01:55 pmNNE 4 5------ 25.3- 8.8---
2024-03-03 01:44 pm N 4 5------ 25.0- 8.6---
2024-03-03 01:35 pm N 4 5------ 24.8- 9.0---
2024-03-03 01:25 pmNNE 4 5------ 24.4- 9.3---
2024-03-03 01:14 pm N 3 5------ 24.3- 9.5---
2024-03-03 01:04 pm N 4 5------ 23.9- 8.6---
2024-03-03 12:54 pm N 4 5------ 23.5- 8.2---
2024-03-03 12:44 pm N 3 5------ 23.4- 8.4---
2024-03-03 12:34 pm N 3 5------ 22.8- 8.8---
2024-03-03 12:24 pmNNW 3 5------ 22.5- 8.2---
2024-03-03 12:15 pmNNW 2 3------ 21.9- 9.1---
2024-03-03 12:04 pm NW 1 3------ 21.4- 10.0---
2024-03-03 11:54 amNNW 1 3------ 20.7- 9.5---
2024-03-03 11:45 am N 1 2------ 20.1- 9.5---
2024-03-03 11:34 am N 1 3------ 19.2- 8.8---
2024-03-03 11:24 am N 3 5------ 18.1- 6.8---
2024-03-03 11:14 am N 4 6------ 17.6- 6.8---
2024-03-03 11:05 am N 4 7------ 16.9- 6.3---
2024-03-03 10:55 am N 5 8------ 16.2- 5.9---
2024-03-03 10:45 amNNW 6 8------ 15.4- 5.2---
2024-03-03 10:35 amNNW 4 7------ 14.9- 5.5---
2024-03-03 10:24 amNNW 6 9------ 14.2- 4.8---
2024-03-03 10:14 amNNW 6 9------ 13.5- 5.0---
2024-03-03 10:04 amNNW 6 8------ 12.6- 4.3---
2024-03-03 09:54 amNNW 5 8------ 12.2- 4.5---
2024-03-03 09:44 amNNW 5 7------ 12.2- 4.3---
2024-03-03 09:35 amNNW 5 7------ 11.7- 4.1---
2024-03-03 09:24 am NW 4 7------ 10.8- 3.7---
2024-03-03 09:14 amNNW 5 8------ 10.6- 4.1---
2024-03-03 09:04 amNNW 5 7------ 10.2- 4.3---
2024-03-03 08:54 amNNW 6 9------ 9.5- 3.6---
2024-03-03 08:44 amNNW 5 8------ 9.0- 3.2---
2024-03-03 08:34 amNNW 5 7------ 8.6- 3.2---
2024-03-03 08:24 amNNW 5 7------ 8.6- 2.8---
2024-03-03 08:14 amNNW 5 8------ 8.4- 2.8---
2024-03-03 08:04 amNNW 6 9------ 8.1- 2.3---
2024-03-03 07:55 amNNW 5 8------ 8.6- 2.7---
2024-03-03 07:35 amNNW 7 9------ 8.8- 2.5---
2024-03-03 07:25 amNNW 7 10------ 8.8- 2.3---
2024-03-03 07:14 amNNW 6 10------ 8.8- 2.1---
2024-03-03 07:05 amNNW 5 10------ 9.1- 2.5---
2024-03-03 06:54 amNNW 6 9------ 8.8- 2.3---
2024-03-03 06:44 am NW 5 8------ 8.6- 2.3---
2024-03-03 06:34 amNNW 6 9------ 8.6- 2.1---
2024-03-03 06:24 amNNW 5 8------ 8.8- 2.3---
2024-03-03 06:14 amNNW 6 9------ 8.6- 2.1---
2024-03-03 06:04 am NW 6 9------ 8.4- 2.1---
2024-03-03 05:54 amNNW 7 10------ 8.2- 1.9---
2024-03-03 05:45 amNNW 6 10------ 8.1- 2.1---
2024-03-03 05:34 amNNW 6 9------ 8.1- 2.1---
2024-03-03 05:24 amNNW 5 9------ 8.6- 2.1---
2024-03-03 05:14 amNNW 7 11------ 8.4- 1.9---
2024-03-03 05:04 amNNW 6 10------ 8.8- 1.9---
2024-03-03 04:54 am NW 6 9------ 8.8- 2.1---
2024-03-03 04:44 am NW 6 9------ 8.8- 1.8---
2024-03-03 04:34 amNNW 6 9------ 9.1- 1.9---
2024-03-03 04:24 amNNW 6 10------ 9.3- 2.3---
2024-03-03 04:14 amNNW 7 10------ 9.0- 1.9---
2024-03-03 04:04 amNNW 7 10------ 9.3- 1.9---
2024-03-03 03:54 am NW 6 9------ 9.3- 2.1---